N2YJJ-2 Weather Reports


Display with metric or nautical units.
time (UTC)temp
F
wind
direction
speed
MPH
gust
MPH
rain 1hr
in
rain 24hr
in
rain mn
in
humidity
%
barometer
mb
20260506224003 44 23 1.0 5.0 0.01 0.78 0.47 96 1017.3
20260506223003 43 347 0.0 3.0 0.02 0.80 0.47 96 1017.3
20260506222002 43 297 0.0 2.0 0.02 0.83 0.47 96 1017.2
20260506215004 43 358 2.0 3.0 0.05 0.91 0.46 94 1016.8
20260506213002 45 353 3.0 7.0 0.09 0.95 0.45 94 1016.2
20260506212004 46 4 3.0 8.0 0.09 0.97 0.45 93 1015.9
20260506211002 47 346 1.0 3.0 0.08 0.97 0.44 92 1015.7
20260506205003 50 342 1.0 5.0 0.05 0.94 0.41 92 1015.5
20260506204002 50 53 0.0 3.0 0.02 0.91 0.38 91 1015.4
20260506203003 51 117 0.0 0.0 0.00 0.89 0.36 88 1015.2
20260506201003 51 135 1.0 3.0 0.00 0.89 0.36 85 1015.1
20260506200004 51 156 3.0 3.0 0.00 0.89 0.36 85 1015.1
20260506195003 51 244 1.0 2.0 0.00 0.89 0.36 84 1015.2
20260506194003 51 168 2.0 3.0 0.00 0.89 0.36 85 1015.3
20260506193003 51 89 2.0 3.0 0.00 0.89 0.36 86 1015.3
20260506191003 51 359 1.0 3.0 0.00 0.89 0.36 85 1015.2
20260506190003 52 134 3.0 6.0 0.00 0.89 0.36 85 1015.1
20260506185003 51 102 1.0 5.0 0.00 0.89 0.36 86 1015.2
20260506184002 51 194 1.0 8.0 0.00 0.89 0.36 87 1015.2
20260506183003 51 137 4.0 7.0 0.00 0.89 0.36 88 1015.4
20260506182003 50 152 2.0 6.0 0.00 0.89 0.36 91 1015.4
20260506181003 49 134 1.0 3.0 0.00 0.89 0.36 91 1015.4
20260506180004 49 92 2.0 7.0 0.00 0.89 0.36 91 1015.4
20260506175004 49 91 1.0 2.0 0.00 0.89 0.36 91 1015.5
20260506174003 48 175 0.0 2.0 0.00 0.89 0.36 90 1015.6
20260506173004 49 129 2.0 3.0 0.00 0.89 0.36 90 1015.6
20260506172004 49 150 1.0 3.0 0.00 0.89 0.36 90 1015.5
20260506170003 48 167 1.0 3.0 0.00 0.89 0.36 91 1015.4
20260506165003 48 51 2.0 3.0 0.00 0.89 0.36 93 1015.3
20260506164004 48 108 1.0 3.0 0.00 0.89 0.36 94 1015.4
20260506163004 47 94 2.0 3.0 0.00 0.89 0.36 93 1015.4
20260506162003 48 64 1.0 3.0 0.00 0.89 0.36 95 1015.5
20260506161003 47 81 2.0 3.0 0.00 0.89 0.36 95 1015.5
20260506160003 47 71 2.0 6.0 0.00 0.89 0.36 95 1015.4
20260506155004 47 68 1.0 3.0 0.00 0.89 0.36 95 1015.2
20260506154003 47 69 0.0 3.0 0.00 0.89 0.36 96 1015.3
20260506152004 47 126 3.0 8.0 0.01 0.89 0.36 97 1015.0
20260506151003 46 96 2.0 6.0 0.01 0.89 0.36 97 1015.2
20260506145003 46 84 3.0 6.0 0.01 0.89 0.36 97 1015.0
20260506144003 46 65 2.0 7.0 0.01 0.89 0.36 97 1014.9
20260506143004 46 98 2.0 3.0 0.00 0.88 0.35 97 1015.1
20260506142003 46 91 2.0 3.0 0.00 0.88 0.35 97 1015.1
20260506141004 46 58 2.0 5.0 0.01 0.88 0.35 97 1015.0
20260506135003 46 97 1.0 5.0 0.01 0.88 0.35 98 1015.0
20260506134004 45 57 1.0 6.0 0.01 0.88 0.35 98 1014.8
20260506132003 45 79 2.0 3.0 0.02 0.88 0.35 98 1014.6
20260506131004 45 98 3.0 5.0 0.01 0.87 0.34 98 1014.6
20260506130004 45 110 1.0 5.0 0.01 0.87 0.34 98 1014.5
20260506125004 45 67 2.0 8.0 0.01 0.87 0.34 98 1014.5
20260506124003 45 104 3.0 6.0 0.02 0.87 0.34 98 1014.4
20260506123003 45 116 1.0 7.0 0.02 0.87 0.34 98 1014.2
20260506122003 45 96 2.0 7.0 0.02 0.86 0.33 98 1014.0
20260506121004 45 91 2.0 5.0 0.03 0.86 0.33 98 1013.9
20260506120003 45 153 3.0 5.0 0.03 0.86 0.33 98 1013.8
20260506115003 45 88 5.0 9.0 0.04 0.86 0.33 98 1013.8
20260506114001 45 80 1.0 3.0 0.03 0.85 0.32 98 1014.0
20260506113001 45 36 1.0 3.0 0.04 0.85 0.32 98 1014.1
20260506112001 44 89 1.0 3.0 0.03 0.84 0.31 98 1014.1
20260506105001 44 117 1.0 5.0 0.03 0.82 0.29 98 1014.1
20260506104002 44 116 1.0 6.0 0.03 0.82 0.29 97 1013.8
20260506103001 44 144 3.0 8.0 0.03 0.81 0.28 97 1013.4
20260506102003 44 124 3.0 8.0 0.04 0.81 0.28 97 1013.6
20260506101003 44 110 2.0 6.0 0.04 0.80 0.27 98 1013.9
20260506100001 45 96 2.0 7.0 0.04 0.79 0.26 98 1013.9
20260506095002 45 104 2.0 9.0 0.04 0.79 0.26 97 1014.0
20260506094002 45 91 4.0 9.0 0.05 0.79 0.26 97 1013.9
20260506093001 45 55 4.0 10.0 0.05 0.78 0.25 97 1014.1
20260506092002 46 79 3.0 9.0 0.04 0.77 0.24 97 1014.2
20260506091001 46 68 2.0 7.0 0.04 0.76 0.23 98 1014.1
20260506090002 46 63 3.0 6.0 0.04 0.75 0.22 98 1014.2
20260506085002 46 49 2.0 6.0 0.05 0.75 0.22 98 1014.2
20260506084001 47 51 3.0 5.0 0.06 0.74 0.21 98 1013.8
20260506083002 47 61 1.0 3.0 0.06 0.73 0.20 98 1013.8
20260506082001 47 48 1.0 3.0 0.07 0.73 0.20 98 1013.7
20260506081002 47 86 3.0 6.0 0.08 0.72 0.19 98 1013.8
20260506073001 48 97 2.0 3.0 0.06 0.67 0.14 98 1013.7
20260506072002 48 21 0.0 3.0 0.06 0.66 0.13 98 1014.0
20260506062002 48 53 1.0 2.0 0.03 0.60 0.07 98 1013.9
20260506061002 48 28 1.0 2.0 0.04 0.60 0.07 98 1014.3
20260506045003 48 88 0.0 1.0 0.01 0.54 0.01 97 1014.6
20260506041002 48 88 0.0 3.0 0.03 0.53 0.00 97 1014.1
20260506040002 48 136 1.0 3.0 0.04 0.53 0.00 97 1014.0
20260506034002 48 148 0.0 2.0 0.05 0.52 0.52 97 1014.1
20260506033003 48 148 0.0 3.0 0.06 0.52 0.52 97 1014.3
20260506031003 49 148 1.0 2.0 0.06 0.50 0.50 97 1014.5
20260506030002 49 148 0.0 1.0 0.06 0.49 0.49 97 1014.5
20260506023002 49 148 0.0 0.0 0.05 0.46 0.46 97 1014.7
20260506022003 49 148 0.0 0.0 0.05 0.45 0.45 97 1014.7
20260506021002 49 148 0.0 0.0 0.04 0.44 0.44 97 1014.9
20260506020002 49 148 1.0 2.0 0.04 0.43 0.43 97 1014.9
20260506015002 49 148 0.0 1.0 0.05 0.43 0.43 97 1014.8
20260506013003 49 148 0.0 0.0 0.07 0.41 0.41 97 1014.5
20260506012002 49 148 0.0 2.0 0.08 0.40 0.40 97 1014.4
20260506011003 49 169 1.0 2.0 0.09 0.40 0.40 97 1014.2
20260506005002 48 173 0.0 1.0 0.09 0.38 0.38 97 1014.6
20260506004002 48 173 0.0 2.0 0.08 0.36 0.36 96 1014.3
20260506003003 48 173 0.0 2.0 0.07 0.34 0.34 96 1014.3
20260506002002 48 133 1.0 2.0 0.06 0.32 0.32 96 1014.1
20260506000002 48 286 0.0 0.0 0.06 0.30 0.30 95 1013.9
20260505235002 48 286 0.0 0.0 0.06 0.29 0.29 95 1013.7
20260505234002 48 286 0.0 1.0 0.06 0.28 0.28 95 1013.4
20260505233002 48 286 0.0 0.0 0.07 0.27 0.27 95 1013.4
20260505232002 48 286 0.0 0.0 0.09 0.26 0.26 94 1013.6
20260505231003 48 286 0.0 1.0 0.11 0.25 0.25 95 1013.6
20260505230004 48 286 0.0 0.0 0.13 0.24 0.24 95 1013.7
20260505225003 48 286 0.0 0.0 0.15 0.23 0.23 94 1013.9